Tracking 18032 objects as of 25-March-2017
HD Live streaming from Space Station
objects crossing your sky now

BREEZE-M DEB

Track BREEZE-M DEB now!
10-day predictions


NORAD ID: 34259
Int'l Code: 2006-006CA
Perigee: 1,128.2 km
Apogee: 14,714.5 km
Inclination: 51.0 °
Period: 283.4 minutes
Semi major axis: 14292 km
RCS: 0.2413 m2 (medium)
Launch date: February 28, 2006
Source: Commonwealth of Independent States (former USSR) (CIS)
Launch site: TYURATAM MISSILE AND SPACE COMPLEX (TTMTR)

Note: This is SATELLITE DEBRIS
Your satellite tracking list
Your tracking list is empty





NASA's NSSDC Master Catalog

Two Line Element Set (TLE):
1 34259U 06006CA  17082.26840930 -.00000008 +00000-0 +00000-0 0  9994
2 34259 050.9632 049.6534 4753006 230.9120 076.3592 05.08098128206149
Source of the keplerian elements: AFSPC